This demonstration page uses our WeatherBlox Daily Observations layout. Learn more.

Left ArrowRight Arrow

38.20091, -84.87328

Hourly Observations for July 23, 2017

Temp ( °F °C ) Dew Point ( °F °C ) Humidity (%) Winds ( mph kmh ) Pressure ( in mb ) Visibility ( mi km ) Precip ( " mm )
12:53 am 00:53 Partly Cloudy 83 28.3 73 22.8 72 72 SW 7 11 29.82 1010 10 16 0.00 0.00
1:53 am 01:53 Mostly Cloudy 83 28.3 73 22.8 72 72 SW 6 9 29.82 1010 9 14 0.00 0.00
2:21 am 02:21 Cloudy with Nearby Thunderstorms 83 28.3 73 22.8 72 72 SW 8 13 29.80 1009 9 14 0.00 0.00
2:53 am 02:53 Cloudy with Nearby Thunderstorms 82 27.8 72 22.2 72 72 SSW 12 19 29.80 1009 10 16 0.00 0.00
3:27 am 03:27 Cloudy with Thunderstorms 79 26.1 72 22.2 79 79 NW 13 20 29.80 1009 3 5 0.04 1.02
3:46 am 03:46 Cloudy with Strong Thunderstorms 77 25 73 22.8 88 88 NW 18 30 29.85 1011 3 4 0.12 3.05
3:48 am 03:48 Cloudy with Strong Thunderstorms 75 24 72 22 89 89 NW 18 30 29.85 1011 2 2 0.18 4.57
3:53 am 03:53 Cloudy with Strong Thunderstorms 75 23.9 71 21.7 88 88 NNW 15 24 29.85 1011 1 2 0.33 8.38
3:59 am 03:59 Cloudy with Strong Thunderstorms 74 23.3 70 21.1 88 88 NW 9 15 29.85 1011 2 2 0.03 0.76
4:03 am 04:03 Cloudy with Thunderstorms 74 23.3 70 21.1 88 88 NW 8 13 29.85 1011 3 4 0.07 1.78
4:06 am 04:06 Cloudy with Strong Thunderstorms 74 23.3 70 21.1 88 88 WNW 9 15 29.88 1012 2 3 0.15 3.81
4:14 am 04:14 Cloudy with Thunderstorms 74 23.3 71 21.7 91 91 WNW 8 13 29.88 1012 2 3 0.17 4.32
4:17 am 04:17 Cloudy with Thunderstorms 74 23.3 71 21.7 91 91 WNW 8 13 29.85 1011 4 6 0.18 4.57
4:35 am 04:35 Cloudy with Nearby Thunderstorms 74 23.3 71 21.7 91 91 WNW 7 11 29.85 1011 5 8 0.22 5.59
4:53 am 04:53 Cloudy with Nearby Thunderstorms 74 23.3 71 21.7 91 91 WNW 5 7 29.85 1011 10 16 0.23 5.84
5:41 am 05:41 Mostly Cloudy with Rain 72 22.2 68 20 87 87 W 7 11 29.88 1012 5 8 0.08 2.03
5:53 am 05:53 Mostly Cloudy with Rain 72 22.2 67 19.4 84 84 NW 9 15 29.85 1011 7 11 0.10 2.54
6:53 am 06:53 Mostly Cloudy with Nearby Thunderstorms 76 24.4 62 16.7 62 62 W 13 20 29.85 1011 9 14 0.09 2.29
7:23 am 07:23 Mostly Cloudy with Light Rain 71 21.7 65 18.3 81 81 SW 13 20 29.85 1011 8 13 0.05 1.27
7:53 am 07:53 Mostly Cloudy with Light Rain 72 22.2 65 18.3 79 79 SW 15 24 29.82 1010 9 14 0.10 2.54
8:53 am 08:53 Mostly Cloudy 77 25 62 16.7 60 60 WSW 14 22 29.81 1010 10 16 0.01 0.25
9:53 am 09:53 Partly Cloudy with Light Rain 75 23.9 63 17.2 66 66 W 20 31 29.87 1011 10 16 0.01 0.25
10:24 am 10:24 Mostly Cloudy with Thunderstorms 73 22.8 65 18.3 76 76 W 16 26 29.91 1013 9 14 0.03 0.76
10:39 am 10:39 Cloudy with Rain 72 22.2 65 18.3 79 79 W 15 24 29.91 1013 5 8 0.08 2.03
10:53 am 10:53 Cloudy with Nearby Thunderstorms 72 22.2 66 18.9 82 82 W 13 20 29.93 1014 4 6 0.14 3.56
11:02 am 11:02 Cloudy with Thunderstorms 72 22.2 67 19.4 84 84 W 9 15 29.91 1013 4 6 0.02 0.51
11:23 am 11:23 Mostly Cloudy with Rain 71 21.7 67 19.4 87 87 WSW 5 7 29.91 1013 4 6 0.08 2.03
11:53 am 11:53 Mostly Cloudy 72 22.2 68 20 87 87 Calm 29.86 1011 10 16 0.10 2.54
12:53 pm 12:53 Mostly Sunny 76 24.4 69 20.6 79 79 SW 3 6 29.83 1010 10 16 0.00 0.00
1:53 pm 13:53 Mostly Sunny 80 26.7 70 21.1 71 71 SSW 12 19 29.80 1009 10 16 0.00 0.00
2:53 pm 14:53 Sunny 82 27.8 70 21.1 67 67 WSW 13 20 29.80 1009 10 16 0.00 0.00
3:53 pm 15:53 Sunny 83 28.3 70 21.1 65 65 WSW 9 15 29.81 1010 10 16 0.00 0.00
4:53 pm 16:53 Sunny 84 28.9 70 21.1 63 63 WSW 8 13 29.81 1010 10 16 0.00 0.00
5:53 pm 17:53 Sunny 85 29.4 69 20.6 59 59 W 7 11 29.81 1009 10 16 0.00 0.00
6:53 pm 18:53 Sunny 85 29.4 68 20 57 57 WNW 9 15 29.80 1009 10 16 0.00 0.00
7:53 pm 19:53 Sunny 83 28.3 67 19.4 59 59 WSW 6 9 29.78 1009 10 16 0.00 0.00
8:53 pm 20:53 Partly Cloudy 79 26.1 68 20 69 69 W 3 6 29.80 1009 10 16 0.00 0.00
9:53 pm 21:53 Mostly Clear 76 24.4 69 20.6 79 79 NW 3 6 29.83 1010 10 16 0.00 0.00
10:53 pm 22:53 Clear 75 23.9 69 20.6 82 82 Calm 29.84 1010 10 16 0.00 0.00
11:53 pm 23:53 Clear 74 23.3 68 20 82 82 SW 5 7 29.85 1011 10 16 0.00 0.00

Powered by AerisWeather